ONEWEB-0008 (44059 NORAD) Tracking and Keplerian Element Data

This shows tracking and keplerian element data for the satellite.

Feedback or suggestion? Click here.




ElementValue
Catalog44059
NameONEWEB-0008
Epoch Orbit389
Epoch Day87.45121394
Epoch Year2019
RAAN64.155
Inclination87.7718
Eccentricity0.0017065
Argument of Perigee160.5749
Mean Anonmoly199.6066
Mean Motion13.6968065
Decay Rate4.1E-07
L11 44059U 19010C 19087.45121394 .00000041 00000-0 29589-4 0 9999
L22 44059 87.7718 64.1550 0017065 160.5749 199.6066 13.69680650 3895

Live tracking and technical data element details for ONEWEB-0008 (NORAD 44059). ONEWEB-0008 can be tracked NOW for your location showing map with azimuth and elevation plus other details from your city location.

Track the satellite on the map from your city or location and see movement details for azimuth, elevation, latitude, longitude, range, height, and movement on the map or in text.







IsCatalogInMostPopularTable: catalog: 44059, numindb: 142
Update: records affected: 1



GetName: 44059 ONEWEB-0008

Hit Count: updated at: Wed, 17 Jul 2019 08:47:44 GMT